Year,Month,Day,Hour,Minute,Value (Times are PST for temperature in C)
2008,06,26,00,00,15.30
2008,06,26,00,01,15.30
2008,06,26,00,02,15.30
2008,06,26,00,03,15.30
2008,06,26,00,04,15.30
2008,06,26,00,05,15.30
2008,06,26,00,06,15.30
2008,06,26,00,07,15.20
2008,06,26,00,08,15.20
2008,06,26,00,09,15.20
2008,06,26,00,10,15.20
2008,06,26,00,11,15.10
2008,06,26,00,12,15.10
2008,06,26,00,13,15.10
2008,06,26,00,14,15.00
2008,06,26,00,15,15.00
2008,06,26,00,16,15.00
2008,06,26,00,17,15.00
2008,06,26,00,18,14.90
2008,06,26,00,19,14.90
2008,06,26,00,20,14.90
2008,06,26,00,21,14.80
2008,06,26,00,22,14.80
2008,06,26,00,23,14.80
2008,06,26,00,24,14.80
2008,06,26,00,25,14.80
2008,06,26,00,26,14.80
2008,06,26,00,27,14.80
2008,06,26,00,28,14.70
2008,06,26,00,29,14.70
2008,06,26,00,30,14.70
2008,06,26,00,31,14.70
2008,06,26,00,32,14.70
2008,06,26,00,33,14.60
2008,06,26,00,34,14.60
2008,06,26,00,35,14.60
2008,06,26,00,36,14.60
2008,06,26,00,37,14.60
2008,06,26,00,38,14.50
2008,06,26,00,39,14.50
2008,06,26,00,40,14.50
2008,06,26,00,41,14.40
2008,06,26,00,42,14.40
2008,06,26,00,43,14.30
2008,06,26,00,44,14.30
2008,06,26,00,45,14.20
2008,06,26,00,46,14.20
2008,06,26,00,47,14.20
2008,06,26,00,48,14.20
2008,06,26,00,49,14.10
2008,06,26,00,50,14.10
2008,06,26,00,51,14.10
2008,06,26,00,52,14.00
2008,06,26,00,53,14.00
2008,06,26,00,54,13.90
2008,06,26,00,55,13.90
2008,06,26,00,56,13.90
2008,06,26,00,57,13.90
2008,06,26,00,58,13.90
2008,06,26,00,59,13.80
2008,06,26,01,00,13.80
2008,06,26,01,01,13.80
2008,06,26,01,02,13.80
2008,06,26,01,03,13.80
2008,06,26,01,04,13.80
2008,06,26,01,05,13.70
2008,06,26,01,06,13.70
2008,06,26,01,07,13.70
2008,06,26,01,08,13.70
2008,06,26,01,09,13.70
2008,06,26,01,10,13.70
2008,06,26,01,11,13.70
2008,06,26,01,12,13.70
2008,06,26,01,13,13.70
2008,06,26,01,14,13.70
2008,06,26,01,15,13.70
2008,06,26,01,16,13.70
2008,06,26,01,17,13.60
2008,06,26,01,18,13.60
2008,06,26,01,19,13.60
2008,06,26,01,20,13.60
2008,06,26,01,21,13.60
2008,06,26,01,22,13.50
2008,06,26,01,23,13.50
2008,06,26,01,24,13.50
2008,06,26,01,25,13.50
2008,06,26,01,26,13.40
2008,06,26,01,27,13.40
2008,06,26,01,28,13.40
2008,06,26,01,29,13.30
2008,06,26,01,30,13.30
2008,06,26,01,31,13.20
2008,06,26,01,32,13.20
2008,06,26,01,33,13.10
2008,06,26,01,34,13.10
2008,06,26,01,35,13.10
2008,06,26,01,36,13.10
2008,06,26,01,37,13.10
2008,06,26,01,38,13.10
2008,06,26,01,39,13.10
2008,06,26,01,40,13.00
2008,06,26,01,41,13.00
2008,06,26,01,42,13.00
2008,06,26,01,43,13.00
2008,06,26,01,44,12.90
2008,06,26,01,45,12.90
2008,06,26,01,46,12.80
2008,06,26,01,47,12.80
2008,06,26,01,48,12.80
2008,06,26,01,49,12.80
2008,06,26,01,50,12.70
2008,06,26,01,51,12.70
2008,06,26,01,52,12.60
2008,06,26,01,53,12.60
2008,06,26,01,54,12.50
2008,06,26,01,55,12.50
2008,06,26,01,56,12.40
2008,06,26,01,57,12.30
2008,06,26,01,58,12.30
2008,06,26,01,59,12.30
2008,06,26,02,00,12.20
2008,06,26,02,01,12.20
2008,06,26,02,02,12.10
2008,06,26,02,03,12.10
2008,06,26,02,04,12.00
2008,06,26,02,05,12.00
2008,06,26,02,06,11.90
2008,06,26,02,07,11.90
2008,06,26,02,08,11.80
2008,06,26,02,09,11.80
2008,06,26,02,10,11.80
2008,06,26,02,11,11.70
2008,06,26,02,12,11.70
2008,06,26,02,13,11.60
2008,06,26,02,14,11.60
2008,06,26,02,15,11.60
2008,06,26,02,16,11.60
2008,06,26,02,17,11.60
2008,06,26,02,18,11.50
2008,06,26,02,19,11.40
2008,06,26,02,20,11.40
2008,06,26,02,21,11.40
2008,06,26,02,22,11.40
2008,06,26,02,23,11.40
2008,06,26,02,24,11.40
2008,06,26,02,25,11.40
2008,06,26,02,26,11.40
2008,06,26,02,27,11.30
2008,06,26,02,28,11.30
2008,06,26,02,29,11.30
2008,06,26,02,30,11.30
2008,06,26,02,31,11.20
2008,06,26,02,32,11.20
2008,06,26,02,33,11.20
2008,06,26,02,34,11.10
2008,06,26,02,35,11.10
2008,06,26,02,36,11.10
2008,06,26,02,37,11.10
2008,06,26,02,38,11.10
2008,06,26,02,39,11.00
2008,06,26,02,40,10.90
2008,06,26,02,41,10.90
2008,06,26,02,42,10.90
2008,06,26,02,43,10.90
2008,06,26,02,44,10.90
2008,06,26,02,45,10.90
2008,06,26,02,46,10.90
2008,06,26,02,47,10.90
2008,06,26,02,48,10.90
2008,06,26,02,49,10.80
2008,06,26,02,50,10.80
2008,06,26,02,51,10.80
2008,06,26,02,52,10.80
2008,06,26,02,53,10.80
2008,06,26,02,54,10.80
2008,06,26,02,55,10.70
2008,06,26,02,56,10.70
2008,06,26,02,57,10.70
2008,06,26,02,58,10.70
2008,06,26,02,59,10.70
2008,06,26,03,00,10.70
2008,06,26,03,01,10.70
2008,06,26,03,02,10.70
2008,06,26,03,03,10.70
2008,06,26,03,04,10.70
2008,06,26,03,05,10.70
2008,06,26,03,06,10.70
2008,06,26,03,07,10.70
2008,06,26,03,08,10.70
2008,06,26,03,09,10.70
2008,06,26,03,10,10.70
2008,06,26,03,11,10.70
2008,06,26,03,12,10.60
2008,06,26,03,13,10.60
2008,06,26,03,14,10.60
2008,06,26,03,15,10.60
2008,06,26,03,16,10.60
2008,06,26,03,17,10.60
2008,06,26,03,18,10.60
2008,06,26,03,19,10.60
2008,06,26,03,20,10.60
2008,06,26,03,21,10.60
2008,06,26,03,22,10.60
2008,06,26,03,23,10.60
2008,06,26,03,24,10.60
2008,06,26,03,25,10.60
2008,06,26,03,26,10.60
2008,06,26,03,27,10.60
2008,06,26,03,28,10.60
2008,06,26,03,29,10.60
2008,06,26,03,30,10.60
2008,06,26,03,31,10.60
2008,06,26,03,32,10.60
2008,06,26,03,33,10.60
2008,06,26,03,34,10.60
2008,06,26,03,35,10.60
2008,06,26,03,36,10.50
2008,06,26,03,37,10.40
2008,06,26,03,38,10.40
2008,06,26,03,39,10.40
2008,06,26,03,40,10.40
2008,06,26,03,41,10.40
2008,06,26,03,42,10.40
2008,06,26,03,43,10.40
2008,06,26,03,44,10.40
2008,06,26,03,45,10.40
2008,06,26,03,46,10.40
2008,06,26,03,47,10.40
2008,06,26,03,48,10.40
2008,06,26,03,49,10.40
2008,06,26,03,50,10.40
2008,06,26,03,51,10.40
2008,06,26,03,52,10.40
2008,06,26,03,53,10.40
2008,06,26,03,54,10.40
2008,06,26,03,55,10.40
2008,06,26,03,56,10.40
2008,06,26,03,57,10.40
2008,06,26,03,58,10.40
2008,06,26,03,59,10.40
2008,06,26,04,00,10.40
2008,06,26,04,01,10.40
2008,06,26,04,02,10.40
2008,06,26,04,03,10.40
2008,06,26,04,04,10.40
2008,06,26,04,05,10.40
2008,06,26,04,06,10.40
2008,06,26,04,07,10.40
2008,06,26,04,08,10.40
2008,06,26,04,09,10.40
2008,06,26,04,10,10.40
2008,06,26,04,11,10.40
2008,06,26,04,12,10.40
2008,06,26,04,13,10.40
2008,06,26,04,14,10.40
2008,06,26,04,15,10.40
2008,06,26,04,16,10.40
2008,06,26,04,17,10.40
2008,06,26,04,18,10.40
2008,06,26,04,19,10.40
2008,06,26,04,20,10.30
2008,06,26,04,21,10.30
2008,06,26,04,22,10.30
2008,06,26,04,23,10.30
2008,06,26,04,24,10.30
2008,06,26,04,25,10.30
2008,06,26,04,26,10.30
2008,06,26,04,27,10.30
2008,06,26,04,28,10.30
2008,06,26,04,29,10.30
2008,06,26,04,30,10.30
2008,06,26,04,31,10.30
2008,06,26,04,32,10.30
2008,06,26,04,33,10.30
2008,06,26,04,34,10.30
2008,06,26,04,35,10.30
2008,06,26,04,36,10.30
2008,06,26,04,37,10.30
2008,06,26,04,38,10.30
2008,06,26,04,39,10.30
2008,06,26,04,40,10.30
2008,06,26,04,41,10.30
2008,06,26,04,42,10.30
2008,06,26,04,43,10.30
2008,06,26,04,44,10.30
2008,06,26,04,45,10.30
2008,06,26,04,46,10.30
2008,06,26,04,47,10.30
2008,06,26,04,48,10.30
2008,06,26,04,49,10.30
2008,06,26,04,50,10.30
2008,06,26,04,51,10.30
2008,06,26,04,52,10.30
2008,06,26,04,53,10.30
2008,06,26,04,54,10.30
2008,06,26,04,55,10.30
2008,06,26,04,56,10.30
2008,06,26,04,57,10.30
2008,06,26,04,58,10.30
2008,06,26,04,59,10.30
2008,06,26,05,00,10.30
2008,06,26,05,01,10.30
2008,06,26,05,02,10.30
2008,06,26,05,03,10.30
2008,06,26,05,04,10.30
2008,06,26,05,05,10.30
2008,06,26,05,06,10.40
2008,06,26,05,07,10.40
2008,06,26,05,08,10.40
2008,06,26,05,09,10.40
2008,06,26,05,10,10.40
2008,06,26,05,11,10.40
2008,06,26,05,12,10.40
2008,06,26,05,13,10.40
2008,06,26,05,14,10.40
2008,06,26,05,15,10.40
2008,06,26,05,16,10.40
2008,06,26,05,17,10.40
2008,06,26,05,18,10.40
2008,06,26,05,19,10.50
2008,06,26,05,20,10.60
2008,06,26,05,21,10.60
2008,06,26,05,22,10.60
2008,06,26,05,23,10.60
2008,06,26,05,24,10.60
2008,06,26,05,25,10.60
2008,06,26,05,26,10.60
2008,06,26,05,27,10.60
2008,06,26,05,28,10.60
2008,06,26,05,29,10.60
2008,06,26,05,30,10.60
2008,06,26,05,31,10.60
2008,06,26,05,32,10.60
2008,06,26,05,33,10.60
2008,06,26,05,34,10.60
2008,06,26,05,35,10.60
2008,06,26,05,36,10.60
2008,06,26,05,37,10.60
2008,06,26,05,38,10.60
2008,06,26,05,39,10.60
2008,06,26,05,40,10.60
2008,06,26,05,41,10.60
2008,06,26,05,42,10.60
2008,06,26,05,43,10.60
2008,06,26,05,44,10.70
2008,06,26,05,45,10.70
2008,06,26,05,46,10.70
2008,06,26,05,47,10.70
2008,06,26,05,48,10.70
2008,06,26,05,49,10.70
2008,06,26,05,50,10.70
2008,06,26,05,51,10.70
2008,06,26,05,52,10.70
2008,06,26,05,53,10.70
2008,06,26,05,54,10.70
2008,06,26,05,55,10.70
2008,06,26,05,56,10.70
2008,06,26,05,57,10.70
2008,06,26,05,58,10.80
2008,06,26,05,59,10.80
2008,06,26,06,00,10.80
2008,06,26,06,01,10.80
2008,06,26,06,02,10.80
2008,06,26,06,03,10.80
2008,06,26,06,04,10.80
2008,06,26,06,05,10.80
2008,06,26,06,06,10.80
2008,06,26,06,07,10.80
2008,06,26,06,08,10.80
2008,06,26,06,09,10.80
2008,06,26,06,10,10.80
2008,06,26,06,11,10.90
2008,06,26,06,12,10.90
2008,06,26,06,13,10.90
2008,06,26,06,14,10.90
2008,06,26,06,15,10.90
2008,06,26,06,16,10.90
2008,06,26,06,17,10.90
2008,06,26,06,18,10.90
2008,06,26,06,19,10.90
2008,06,26,06,20,10.90
2008,06,26,06,21,10.90
2008,06,26,06,22,10.90
2008,06,26,06,23,10.90
2008,06,26,06,24,10.90
2008,06,26,06,25,10.90
2008,06,26,06,26,10.90
2008,06,26,06,27,10.90
2008,06,26,06,28,10.90
2008,06,26,06,29,10.90
2008,06,26,06,30,10.90
2008,06,26,06,31,10.90
2008,06,26,06,32,10.90
2008,06,26,06,33,10.90
2008,06,26,06,34,11.00
2008,06,26,06,35,11.10
2008,06,26,06,36,11.10
2008,06,26,06,37,11.10
2008,06,26,06,38,11.10
2008,06,26,06,39,11.10
2008,06,26,06,40,11.10
2008,06,26,06,41,11.10
2008,06,26,06,42,11.10
2008,06,26,06,43,11.10
2008,06,26,06,44,11.10
2008,06,26,06,45,11.10
2008,06,26,06,46,11.10
2008,06,26,06,47,11.10
2008,06,26,06,48,11.10
2008,06,26,06,49,11.10
2008,06,26,06,50,11.10
2008,06,26,06,51,11.10
2008,06,26,06,52,11.10
2008,06,26,06,53,11.20
2008,06,26,06,54,11.20
2008,06,26,06,55,11.20
2008,06,26,06,56,11.20
2008,06,26,06,57,11.20
2008,06,26,06,58,11.20
2008,06,26,06,59,11.20
2008,06,26,07,00,11.30
2008,06,26,07,01,11.30
2008,06,26,07,02,11.30
2008,06,26,07,03,11.30
2008,06,26,07,04,11.30
2008,06,26,07,05,11.30
2008,06,26,07,06,11.30
2008,06,26,07,07,11.40
2008,06,26,07,08,11.40
2008,06,26,07,09,11.40
2008,06,26,07,10,11.40
2008,06,26,07,11,11.40
2008,06,26,07,12,11.40
2008,06,26,07,13,11.40
2008,06,26,07,14,11.40
2008,06,26,07,15,11.40
2008,06,26,07,16,11.40
2008,06,26,07,17,11.40
2008,06,26,07,18,11.40
2008,06,26,07,19,11.50
2008,06,26,07,20,11.60
2008,06,26,07,21,11.60
2008,06,26,07,22,11.60
2008,06,26,07,23,11.60
2008,06,26,07,24,11.60
2008,06,26,07,25,11.60
2008,06,26,07,26,11.60
2008,06,26,07,27,11.60
2008,06,26,07,28,11.60
2008,06,26,07,29,11.60
2008,06,26,07,30,11.60
2008,06,26,07,31,11.60
2008,06,26,07,32,11.70
2008,06,26,07,33,11.70
2008,06,26,07,34,11.70
2008,06,26,07,35,11.80
2008,06,26,07,36,11.80
2008,06,26,07,37,11.80
2008,06,26,07,38,11.80
2008,06,26,07,39,11.80
2008,06,26,07,40,11.80
2008,06,26,07,41,11.80
2008,06,26,07,42,11.80
2008,06,26,07,43,11.80
2008,06,26,07,44,11.80
2008,06,26,07,45,11.90
2008,06,26,07,46,11.90
2008,06,26,07,47,11.90
2008,06,26,07,48,12.00
2008,06,26,07,49,12.00
2008,06,26,07,50,12.10
2008,06,26,07,51,12.10
2008,06,26,07,52,12.20
2008,06,26,07,53,12.20
2008,06,26,07,54,12.30
2008,06,26,07,55,12.30
2008,06,26,07,56,12.40
2008,06,26,07,57,12.40
2008,06,26,07,58,12.40
2008,06,26,07,59,12.50
2008,06,26,08,00,12.50
2008,06,26,08,01,12.50
2008,06,26,08,02,12.60
2008,06,26,08,03,12.60
2008,06,26,08,04,12.70
2008,06,26,08,05,12.70
2008,06,26,08,06,12.80
2008,06,26,08,07,12.80
2008,06,26,08,08,12.90
2008,06,26,08,09,13.00
2008,06,26,08,10,13.00
2008,06,26,08,11,13.10
2008,06,26,08,12,13.20
2008,06,26,08,13,13.20
2008,06,26,08,14,13.20
2008,06,26,08,15,13.20
2008,06,26,08,16,13.20
2008,06,26,08,17,13.20
2008,06,26,08,18,13.20
2008,06,26,08,19,13.20
2008,06,26,08,20,13.20
2008,06,26,08,21,13.20
2008,06,26,08,22,13.20
2008,06,26,08,23,13.20
2008,06,26,08,24,13.20
2008,06,26,08,25,13.30
2008,06,26,08,26,13.30
2008,06,26,08,27,13.30
2008,06,26,08,28,13.30
2008,06,26,08,29,13.30
2008,06,26,08,30,13.30
2008,06,26,08,31,13.30
2008,06,26,08,32,13.40
2008,06,26,08,33,13.40
2008,06,26,08,34,13.50
2008,06,26,08,35,13.60
2008,06,26,08,36,13.60
2008,06,26,08,37,13.70
2008,06,26,08,38,13.80
2008,06,26,08,39,13.90
2008,06,26,08,40,14.00
2008,06,26,08,41,14.00
2008,06,26,08,42,14.10
2008,06,26,08,43,14.10
2008,06,26,08,44,14.20
2008,06,26,08,45,14.20
2008,06,26,08,46,14.20
2008,06,26,08,47,14.20
2008,06,26,08,48,14.20
2008,06,26,08,49,14.20
2008,06,26,08,50,14.10
2008,06,26,08,51,14.10
2008,06,26,08,52,14.00
2008,06,26,08,53,14.00
2008,06,26,08,54,14.00
2008,06,26,08,55,14.00
2008,06,26,08,56,14.00
2008,06,26,08,57,14.10
2008,06,26,08,58,14.10
2008,06,26,08,59,14.30
2008,06,26,09,00,14.40
2008,06,26,09,01,14.50
2008,06,26,09,02,14.50
2008,06,26,09,03,14.60
2008,06,26,09,04,14.60
2008,06,26,09,05,14.60
2008,06,26,09,06,14.60
2008,06,26,09,07,14.60
2008,06,26,09,08,14.60
2008,06,26,09,09,14.60
2008,06,26,09,10,14.70
2008,06,26,09,11,14.70
2008,06,26,09,12,14.70
2008,06,26,09,13,14.70
2008,06,26,09,14,14.70
2008,06,26,09,15,14.70
2008,06,26,09,16,14.70
2008,06,26,09,17,14.80
2008,06,26,09,18,14.80
2008,06,26,09,19,14.80
2008,06,26,09,20,14.90
2008,06,26,09,21,14.90
2008,06,26,09,22,14.90
2008,06,26,09,23,14.90
2008,06,26,09,24,14.80
2008,06,26,09,25,14.80
2008,06,26,09,26,14.90
2008,06,26,09,27,14.90
2008,06,26,09,28,15.00
2008,06,26,09,29,15.00
2008,06,26,09,30,15.10
2008,06,26,09,31,15.10
2008,06,26,09,32,15.10
2008,06,26,09,33,15.10
2008,06,26,09,34,15.00
2008,06,26,09,35,14.90
2008,06,26,09,36,14.90
2008,06,26,09,37,14.90
2008,06,26,09,38,14.80
2008,06,26,09,39,14.80
2008,06,26,09,40,14.80
2008,06,26,09,41,14.80
2008,06,26,09,42,14.80
2008,06,26,09,43,14.80
2008,06,26,09,44,14.70
2008,06,26,09,45,14.70
2008,06,26,09,46,14.60
2008,06,26,09,47,14.50
2008,06,26,09,48,14.40
2008,06,26,09,49,14.30
2008,06,26,09,50,14.20
2008,06,26,09,51,14.20
2008,06,26,09,52,14.20
2008,06,26,09,53,14.20
2008,06,26,09,54,14.20
2008,06,26,09,55,14.10
2008,06,26,09,56,14.10
2008,06,26,09,57,14.10
2008,06,26,09,58,14.10
2008,06,26,09,59,14.10
2008,06,26,10,00,14.10
2008,06,26,10,01,14.10
2008,06,26,10,02,14.00
2008,06,26,10,03,14.00
2008,06,26,10,04,14.00
2008,06,26,10,05,14.00
2008,06,26,10,06,14.00
2008,06,26,10,07,13.90
2008,06,26,10,08,13.90
2008,06,26,10,09,14.00
2008,06,26,10,10,14.00
2008,06,26,10,11,14.00
2008,06,26,10,12,14.00
2008,06,26,10,13,14.10
2008,06,26,10,14,14.10
2008,06,26,10,15,14.10
2008,06,26,10,16,14.10
2008,06,26,10,17,14.10
2008,06,26,10,18,14.10
2008,06,26,10,19,14.10
2008,06,26,10,20,14.10
2008,06,26,10,21,14.20
2008,06,26,10,22,14.20
2008,06,26,10,23,14.20
2008,06,26,10,24,14.20
2008,06,26,10,25,14.20
2008,06,26,10,26,14.30
2008,06,26,10,27,14.30
2008,06,26,10,28,14.30
2008,06,26,10,29,14.40
2008,06,26,10,30,14.50
2008,06,26,10,31,14.60
2008,06,26,10,32,14.70
2008,06,26,10,33,14.80
2008,06,26,10,34,14.80
2008,06,26,10,35,14.90
2008,06,26,10,36,15.00
2008,06,26,10,37,15.10
2008,06,26,10,38,15.10
2008,06,26,10,39,15.20
2008,06,26,10,40,15.20
2008,06,26,10,41,15.20
2008,06,26,10,42,15.20
2008,06,26,10,43,15.20
2008,06,26,10,44,15.10
2008,06,26,10,45,15.10
2008,06,26,10,46,15.10
2008,06,26,10,47,15.00
2008,06,26,10,48,14.90
2008,06,26,10,49,14.90
2008,06,26,10,50,14.80
2008,06,26,10,51,14.90
2008,06,26,10,52,15.00
2008,06,26,10,53,15.00
2008,06,26,10,54,15.10
2008,06,26,10,55,15.20
2008,06,26,10,56,15.20
2008,06,26,10,57,15.20
2008,06,26,10,58,15.30
2008,06,26,10,59,15.30
2008,06,26,11,00,15.40
2008,06,26,11,01,15.40
2008,06,26,11,02,15.50
2008,06,26,11,03,15.50
2008,06,26,11,04,15.60
2008,06,26,11,05,15.70
2008,06,26,11,06,15.80
2008,06,26,11,07,15.80
2008,06,26,11,08,15.80
2008,06,26,11,09,15.80
2008,06,26,11,10,15.70
2008,06,26,11,11,15.70
2008,06,26,11,12,15.70
2008,06,26,11,13,15.70
2008,06,26,11,14,15.70
2008,06,26,11,15,15.70
2008,06,26,11,16,15.70
2008,06,26,11,17,15.70
2008,06,26,11,18,15.80
2008,06,26,11,19,15.70
2008,06,26,11,20,15.60
2008,06,26,11,21,15.50
2008,06,26,11,22,15.40
2008,06,26,11,23,15.40
2008,06,26,11,24,15.50
2008,06,26,11,25,15.50
2008,06,26,11,26,15.50
2008,06,26,11,27,15.50
2008,06,26,11,28,15.40
2008,06,26,11,29,15.40
2008,06,26,11,30,15.40
2008,06,26,11,31,15.30
2008,06,26,11,32,15.30
2008,06,26,11,33,15.30
2008,06,26,11,34,15.20
2008,06,26,11,35,15.20
2008,06,26,11,36,15.20
2008,06,26,11,37,15.20
2008,06,26,11,38,15.20
2008,06,26,11,39,15.10
2008,06,26,11,40,15.20
2008,06,26,11,41,15.10
2008,06,26,11,42,15.10
2008,06,26,11,43,15.20
2008,06,26,11,44,15.20
2008,06,26,11,45,15.20
2008,06,26,11,46,15.30
2008,06,26,11,47,15.30
2008,06,26,11,48,15.30
2008,06,26,11,49,15.30
2008,06,26,11,50,15.30
2008,06,26,11,51,15.30
2008,06,26,11,52,15.20
2008,06,26,11,53,15.20
2008,06,26,11,54,15.30
2008,06,26,11,55,15.30
2008,06,26,11,56,15.30
2008,06,26,11,57,15.30
2008,06,26,11,58,15.50
2008,06,26,11,59,15.50
2008,06,26,12,00,15.50
2008,06,26,12,01,15.50
2008,06,26,12,02,15.60
2008,06,26,12,03,15.60
2008,06,26,12,04,15.70
2008,06,26,12,05,15.70
2008,06,26,12,06,15.70
2008,06,26,12,07,15.70
2008,06,26,12,08,15.70
2008,06,26,12,09,15.70
2008,06,26,12,10,15.70
2008,06,26,12,11,15.70
2008,06,26,12,12,15.60
2008,06,26,12,13,15.60
2008,06,26,12,14,15.50
2008,06,26,12,15,15.50
2008,06,26,12,16,15.60
2008,06,26,12,17,15.50
2008,06,26,12,18,15.60
2008,06,26,12,19,15.70
2008,06,26,12,20,15.70
2008,06,26,12,21,15.70
2008,06,26,12,22,15.80
2008,06,26,12,23,15.80
2008,06,26,12,24,15.80
2008,06,26,12,25,15.90
2008,06,26,12,26,16.10
2008,06,26,12,27,16.10
2008,06,26,12,28,16.10
2008,06,26,12,29,16.10
2008,06,26,12,30,16.10
2008,06,26,12,31,16.10
2008,06,26,12,32,16.10
2008,06,26,12,33,16.10
2008,06,26,12,34,16.10
2008,06,26,12,35,16.10
2008,06,26,12,36,16.10
2008,06,26,12,37,16.10
2008,06,26,12,38,16.20
2008,06,26,12,39,16.30
2008,06,26,12,40,16.40
2008,06,26,12,41,16.40
2008,06,26,12,42,16.40
2008,06,26,12,43,16.40
2008,06,26,12,44,16.40
2008,06,26,12,45,16.40
2008,06,26,12,46,16.30
2008,06,26,12,47,16.30
2008,06,26,12,48,16.20
2008,06,26,12,49,16.20
2008,06,26,12,50,16.20
2008,06,26,12,51,16.30
2008,06,26,12,52,16.30
2008,06,26,12,53,16.30
2008,06,26,12,54,16.30
2008,06,26,12,55,16.30
2008,06,26,12,56,16.30
2008,06,26,12,57,16.40
2008,06,26,12,58,16.40
2008,06,26,12,59,16.40
2008,06,26,13,00,16.40
2008,06,26,13,01,16.50
2008,06,26,13,02,16.60
2008,06,26,13,03,16.70
2008,06,26,13,04,16.60
2008,06,26,13,05,16.50
2008,06,26,13,06,16.40
2008,06,26,13,07,16.40
2008,06,26,13,08,16.40
2008,06,26,13,09,16.40
2008,06,26,13,10,16.40
2008,06,26,13,11,16.40
2008,06,26,13,12,16.40
2008,06,26,13,13,16.40
2008,06,26,13,14,16.40
2008,06,26,13,15,16.40
2008,06,26,13,16,16.40
2008,06,26,13,17,16.40
2008,06,26,13,18,16.40
2008,06,26,13,19,16.40
2008,06,26,13,20,16.40
2008,06,26,13,21,16.60
2008,06,26,13,22,16.70
2008,06,26,13,23,16.60
2008,06,26,13,24,16.60
2008,06,26,13,25,16.60
2008,06,26,13,26,16.70
2008,06,26,13,27,16.70
2008,06,26,13,28,16.80
2008,06,26,13,29,16.80
2008,06,26,13,30,16.80
2008,06,26,13,31,16.80
2008,06,26,13,32,16.90
2008,06,26,13,33,16.90
2008,06,26,13,34,16.80
2008,06,26,13,35,16.90
2008,06,26,13,36,16.90
2008,06,26,13,37,16.90
2008,06,26,13,38,16.80
2008,06,26,13,39,16.70
2008,06,26,13,40,16.70
2008,06,26,13,41,16.70
2008,06,26,13,42,16.70
2008,06,26,13,43,16.60
2008,06,26,13,44,16.20
2008,06,26,13,45,15.90
2008,06,26,13,46,15.80
2008,06,26,13,47,15.60
2008,06,26,13,48,15.60
2008,06,26,13,49,15.50
2008,06,26,13,50,15.50
2008,06,26,13,51,15.50
2008,06,26,13,52,15.40
2008,06,26,13,53,15.40
2008,06,26,13,54,15.30
2008,06,26,13,55,15.30
2008,06,26,13,56,15.30
2008,06,26,13,57,15.20
2008,06,26,13,58,15.20
2008,06,26,13,59,15.10
2008,06,26,14,00,15.10
2008,06,26,14,01,15.00
2008,06,26,14,02,14.90
2008,06,26,14,03,14.90
2008,06,26,14,04,14.80
2008,06,26,14,05,14.80
2008,06,26,14,06,14.80
2008,06,26,14,07,14.80
2008,06,26,14,08,14.70
2008,06,26,14,09,14.70
2008,06,26,14,10,14.80
2008,06,26,14,11,14.80
2008,06,26,14,12,14.70
2008,06,26,14,13,14.70
2008,06,26,14,14,14.60
2008,06,26,14,15,14.60
2008,06,26,14,16,14.50
2008,06,26,14,17,14.40
2008,06,26,14,18,14.40
2008,06,26,14,19,14.40
2008,06,26,14,20,14.40
2008,06,26,14,21,14.30
2008,06,26,14,22,14.30
2008,06,26,14,23,14.30
2008,06,26,14,24,14.40
2008,06,26,14,25,14.40
2008,06,26,14,26,14.50
2008,06,26,14,27,14.50
2008,06,26,14,28,14.50
2008,06,26,14,29,14.50
2008,06,26,14,30,14.50
2008,06,26,14,31,14.50
2008,06,26,14,32,14.50
2008,06,26,14,33,14.60
2008,06,26,14,34,14.50
2008,06,26,14,35,14.50
2008,06,26,14,36,14.40
2008,06,26,14,37,14.30
2008,06,26,14,38,14.30
2008,06,26,14,39,14.30
2008,06,26,14,40,14.30
2008,06,26,14,41,14.30
2008,06,26,14,42,14.40
2008,06,26,14,43,14.50
2008,06,26,14,44,14.70
2008,06,26,14,45,14.70
2008,06,26,14,46,14.60
2008,06,26,14,47,14.60
2008,06,26,14,48,14.60
2008,06,26,14,49,14.60
2008,06,26,14,50,14.60
2008,06,26,14,51,14.70
2008,06,26,14,52,14.70
2008,06,26,14,53,14.70
2008,06,26,14,54,14.70
2008,06,26,14,55,14.70
2008,06,26,14,56,14.70
2008,06,26,14,57,14.70
2008,06,26,14,58,14.70
2008,06,26,14,59,14.70
2008,06,26,15,00,14.60
2008,06,26,15,01,14.60
2008,06,26,15,02,14.60
2008,06,26,15,03,14.60
2008,06,26,15,04,14.60
2008,06,26,15,05,14.60
2008,06,26,15,06,14.60
2008,06,26,15,07,14.50
2008,06,26,15,08,14.50
2008,06,26,15,09,14.50
2008,06,26,15,10,14.50
2008,06,26,15,11,14.50
2008,06,26,15,12,14.50
2008,06,26,15,13,14.50
2008,06,26,15,14,14.60
2008,06,26,15,15,14.60
2008,06,26,15,16,14.60
2008,06,26,15,17,14.60
2008,06,26,15,18,14.60
2008,06,26,15,19,14.60
2008,06,26,15,20,14.60
2008,06,26,15,21,14.70
2008,06,26,15,22,14.60
2008,06,26,15,23,14.40
2008,06,26,15,24,14.20
2008,06,26,15,25,14.10
2008,06,26,15,26,14.00
2008,06,26,15,27,13.90
2008,06,26,15,28,13.90
2008,06,26,15,29,13.90
2008,06,26,15,30,13.90
2008,06,26,15,31,13.70
2008,06,26,15,32,13.70
2008,06,26,15,33,13.70
2008,06,26,15,34,13.60
2008,06,26,15,35,13.60
2008,06,26,15,36,13.70
2008,06,26,15,37,13.70
2008,06,26,15,38,13.80
2008,06,26,15,39,13.90
2008,06,26,15,40,14.00
2008,06,26,15,41,14.10
2008,06,26,15,42,14.20
2008,06,26,15,43,14.20
2008,06,26,15,44,14.30
2008,06,26,15,45,14.30
2008,06,26,15,46,14.40
2008,06,26,15,47,14.40
2008,06,26,15,48,14.50
2008,06,26,15,49,14.50
2008,06,26,15,50,14.50
2008,06,26,15,51,14.60
2008,06,26,15,52,14.70
2008,06,26,15,53,14.80
2008,06,26,15,54,14.80
2008,06,26,15,55,14.90
2008,06,26,15,56,14.90
2008,06,26,15,57,14.90
2008,06,26,15,58,14.90
2008,06,26,15,59,14.90
2008,06,26,16,00,15.00
2008,06,26,16,01,15.00
2008,06,26,16,02,15.10
2008,06,26,16,03,15.20
2008,06,26,16,04,15.30
2008,06,26,16,05,15.30
2008,06,26,16,06,15.40
2008,06,26,16,07,15.50
2008,06,26,16,08,15.50
2008,06,26,16,09,15.60
2008,06,26,16,10,15.60
2008,06,26,16,11,15.60
2008,06,26,16,12,15.70
2008,06,26,16,13,15.70
2008,06,26,16,14,15.80
2008,06,26,16,15,15.80
2008,06,26,16,16,15.90
2008,06,26,16,17,16.00
2008,06,26,16,18,16.10
2008,06,26,16,19,16.30
2008,06,26,16,20,16.40
2008,06,26,16,21,16.40
2008,06,26,16,22,16.40
2008,06,26,16,23,16.30
2008,06,26,16,24,16.10
2008,06,26,16,25,16.00
2008,06,26,16,26,15.80
2008,06,26,16,27,15.70
2008,06,26,16,28,15.60
2008,06,26,16,29,15.60
2008,06,26,16,30,15.50
2008,06,26,16,31,15.50
2008,06,26,16,32,15.50
2008,06,26,16,33,15.60
2008,06,26,16,34,15.60
2008,06,26,16,35,15.70
2008,06,26,16,36,15.80
2008,06,26,16,37,15.80
2008,06,26,16,38,15.80
2008,06,26,16,39,15.90
2008,06,26,16,40,15.90
2008,06,26,16,41,16.10
2008,06,26,16,42,16.10
2008,06,26,16,43,16.10
2008,06,26,16,44,16.10
2008,06,26,16,45,16.10
2008,06,26,16,46,16.10
2008,06,26,16,47,16.10
2008,06,26,16,48,16.20
2008,06,26,16,49,16.20
2008,06,26,16,50,16.20
2008,06,26,16,51,16.30
2008,06,26,16,52,16.30
2008,06,26,16,53,16.30
2008,06,26,16,54,16.40
2008,06,26,16,55,16.40
2008,06,26,16,56,16.40
2008,06,26,16,57,16.40
2008,06,26,16,58,16.40
2008,06,26,16,59,16.40
2008,06,26,17,00,16.40
2008,06,26,17,01,16.40
2008,06,26,17,02,16.40
2008,06,26,17,03,16.50
2008,06,26,17,04,16.60
2008,06,26,17,05,16.70
2008,06,26,17,06,16.70
2008,06,26,17,07,16.70
2008,06,26,17,08,16.80
2008,06,26,17,09,16.80
2008,06,26,17,10,16.70
2008,06,26,17,11,16.70
2008,06,26,17,12,16.60
2008,06,26,17,13,16.50
2008,06,26,17,14,16.40
2008,06,26,17,15,16.40
2008,06,26,17,16,16.40
2008,06,26,17,17,16.20
2008,06,26,17,18,15.80
2008,06,26,17,19,15.50